Barcelona, Spain

1:13 PM CET on February 10, 2016 (GMT +0100)
El Prat

Weather History for LEBL - January, 2013

Change the Weather History Date:

Sunday, January 27, 2013

  Actual Average Record
Temperature  
Mean Temperature 48 °F -  
Max Temperature 56 °F 55 °F 63 °F (2014)
Min Temperature 41 °F 41 °F 30 °F (2005)
Degree Days  
Heating Degree Days 16    
Moisture  
Dew Point 41 °F    
Average Humidity 73    
Maximum Humidity 93    
Minimum Humidity 41    
Precipitation  
Precipitation 0.02 in 0.05 in - ()
Sea Level Pressure  
Sea Level Pressure 29.96 in    
Wind  
Wind Speed 8 mph ()    
Max Wind Speed 14 mph    
Max Gust Speed 20 mph    
Visibility 6.3 miles    
Events Rain    
Averages and records for this station are not official NWS values.
T = Trace of Precipitation, MM = Missing Value Source: Averaged Metar Reports

Daily Weather History Graph

Daily Weather History Graph

Search for Another Location

Airport or City:

Trip Planner

Search our weather history database for the weather conditions in past years. The results will help you decide how hot, cold, wet, or windy it might be!

Date:

Astronomy

Jan. 27, 2013 Rise Set
Actual Time 8:07 AM CET 6:01 PM CET
Civil Twilight 7:37 AM CET 6:31 PM CET
Nautical Twilight 7:04 AM CET 7:04 PM CET
Astronomical Twilight 6:31 AM CET 7:37 PM CET
Moon 6:41 PM CET (1/27) 7:51 AM CET (1/27)
Length of Visible Light 10h 53m
Length of Day
9h 54m
Full, 100% of the Moon is Illuminated
Jan 27
Full
Feb 3
Last Quarter
Feb 10
New
Feb 17
First Quarter
Feb 25
Full

Hourly Weather History & Observations

Time (CET) Temp. Windchill Dew Point Humidity Pressure Visibility Wind Dir Wind Speed Gust Speed Precip Events Conditions
12:00 AM 48.2 °F - 44.6 °F 87% 30.06 in 6.2 mi NNW 9.2 mph - N/A   Scattered Clouds
12:30 AM 46.4 °F 41.9 °F 42.8 °F 87% 30.06 in 6.2 mi NNW 9.2 mph - N/A   Scattered Clouds
1:00 AM 44 °F - 41 °F 83% 30.09 in 7 mi North 8.1 mph - -   Scattered Clouds
1:00 AM 44.6 °F 40.7 °F 42.8 °F 93% 30.06 in 6.2 mi NW 6.9 mph - N/A   Partly Cloudy
1:30 AM 44.6 °F 40.2 °F 42.8 °F 93% 30.06 in 6.2 mi NW 8.1 mph - N/A   Partly Cloudy
2:00 AM 44.6 °F 39.2 °F 42.8 °F 93% 30.06 in 5.6 mi NNW 10.4 mph - N/A   Partly Cloudy
2:30 AM 44.6 °F 38.8 °F 41.0 °F 87% 30.06 in 5.6 mi NW 11.5 mph - N/A   Partly Cloudy
3:00 AM 46.4 °F 41.9 °F 42.8 °F 87% 30.06 in 5.6 mi NNW 9.2 mph - N/A   Partly Cloudy
3:30 AM 44.6 °F 39.2 °F 41.0 °F 87% 30.04 in 5.0 mi WNW 10.4 mph - N/A   Partly Cloudy
4:00 AM 46.4 °F 41.9 °F 41.0 °F 81% 30.04 in 6.2 mi WNW 9.2 mph - N/A   Partly Cloudy
4:30 AM 48.2 °F - 37.4 °F 66% 30.04 in 6.2 mi NW 11.5 mph - N/A   Partly Cloudy
5:00 AM 44.6 °F 38.4 °F 39.2 °F 81% 30.04 in 6.2 mi NW 12.7 mph - N/A   Partly Cloudy
5:30 AM 42.8 °F 36.2 °F 39.2 °F 87% 30.01 in 6.2 mi NNW 12.7 mph - N/A   Partly Cloudy
6:00 AM 42.8 °F 35.8 °F 39.2 °F 87% 30.01 in 6.2 mi NW 13.8 mph - N/A   Partly Cloudy
6:30 AM 42.8 °F 35.8 °F 37.4 °F 81% 30.01 in 6.2 mi NW 13.8 mph - N/A   Partly Cloudy
7:00 AM 43 °F - 36 °F 67% 30.03 in 7 mi NNW 12.7 mph - -   Scattered Clouds
7:00 AM 44.6 °F 38.4 °F 37.4 °F 76% 30.01 in 6.2 mi NW 12.7 mph - N/A   Partly Cloudy
7:30 AM 42.8 °F 37.0 °F 37.4 °F 81% 30.01 in 6.2 mi NW 10.4 mph - N/A   Partly Cloudy
8:00 AM 42.8 °F 36.6 °F 37.4 °F 81% 30.01 in 6.2 mi NW 11.5 mph - N/A   Partly Cloudy
8:30 AM 42.8 °F 36.6 °F 37.4 °F 81% 30.01 in 6.2 mi NW 11.5 mph - N/A   Partly Cloudy
9:00 AM 42.8 °F 37.5 °F 37.4 °F 81% 30.01 in 6.2 mi NNW 9.2 mph - N/A   Partly Cloudy
9:30 AM 44.6 °F 39.2 °F 37.4 °F 76% 30.01 in 6.2 mi NNW 10.4 mph - N/A   Partly Cloudy
10:00 AM 46.4 °F 41.1 °F 37.4 °F 71% 30.01 in 6.2 mi NW 11.5 mph - N/A   Partly Cloudy
10:30 AM 48.2 °F - 37.4 °F 66% 30.01 in 6.2 mi NNW 10.4 mph - N/A   Partly Cloudy
11:00 AM 48.2 °F - 37.4 °F 66% 30.01 in 6.2 mi NNW 9.2 mph - N/A   Partly Cloudy
11:30 AM 50.0 °F - 37.4 °F 62% 30.01 in 6.2 mi NNW 10.4 mph - N/A   Partly Cloudy
12:00 PM 50.0 °F - 37.4 °F 62% 29.98 in 6.2 mi NW 8.1 mph 19.6 mph N/A   Partly Cloudy
12:30 PM 51.8 °F - 39.2 °F 62% 29.98 in 6.2 mi NW 5.8 mph - N/A   Partly Cloudy
1:00 PM 55 °F - 38 °F 41% 29.98 in 10 mi ENE 1.2 mph - -   Scattered Clouds
1:00 PM 55.4 °F - 39.2 °F 54% 29.98 in 6.2 mi WNW 3.5 mph - N/A   Partly Cloudy
1:30 PM 55.4 °F - 39.2 °F 54% 29.95 in 6.2 mi WNW 2.3 mph - N/A   Partly Cloudy
2:00 PM 55.4 °F - 42.8 °F 63% 29.95 in 6.2 mi Variable 2.3 mph - N/A   Partly Cloudy
2:30 PM 55.4 °F - 44.6 °F 67% 29.95 in 6.2 mi SW 8.1 mph - N/A   Partly Cloudy
3:00 PM 55.4 °F - 44.6 °F 67% 29.92 in 6.2 mi SW 8.1 mph - N/A   Partly Cloudy
3:30 PM 55.4 °F - 44.6 °F 67% 29.92 in 6.2 mi SW 10.4 mph - N/A   Partly Cloudy
4:00 PM 55.4 °F - 46.4 °F 72% 29.92 in 6.2 mi SW 10.4 mph - N/A   Partly Cloudy
4:30 PM 55.4 °F - 46.4 °F 72% 29.89 in 6.2 mi SW 12.7 mph - N/A   Partly Cloudy
5:00 PM 55.4 °F - 48.2 °F 77% 29.92 in 6.2 mi SW 11.5 mph - N/A   Partly Cloudy
5:30 PM 55.4 °F - 50.0 °F 82% 29.89 in 6.2 mi WSW 10.4 mph - N/A   Partly Cloudy
6:00 PM 55.4 °F - 48.2 °F 77% 29.89 in 6.2 mi WSW 9.2 mph - N/A   Partly Cloudy
6:30 PM 55.4 °F - 48.2 °F 77% 29.89 in 6.2 mi WSW 6.9 mph - N/A   Partly Cloudy
7:00 PM 55 °F - 46 °F 64% 29.89 in 11 mi SSW 8.1 mph - -   Scattered Clouds
7:00 PM 55.4 °F - 48.2 °F 77% 29.89 in 6.2 mi SW 10.4 mph - N/A   Partly Cloudy
7:30 PM 55.4 °F - 44.6 °F 67% 29.86 in 6.2 mi SW 8.1 mph - N/A   Partly Cloudy
8:00 PM 53.6 °F - 44.6 °F 72% 29.86 in 6.2 mi NNW 5.8 mph - N/A   Partly Cloudy
8:30 PM 55.4 °F - 44.6 °F 67% 29.86 in 6.2 mi Variable 1.2 mph - N/A   Partly Cloudy
9:00 PM 55.4 °F - 42.8 °F 63% 29.86 in 6.2 mi NW 2.3 mph - N/A   Partly Cloudy
9:30 PM 55.4 °F - 39.2 °F 54% 29.83 in 6.2 mi North 6.9 mph - N/A   Partly Cloudy
10:00 PM 53.6 °F - 39.2 °F 58% 29.83 in 6.2 mi North 5.8 mph - N/A   Partly Cloudy
10:30 PM 53.6 °F - 39.2 °F 58% 29.80 in 6.2 mi NNW 9.2 mph - N/A   Partly Cloudy
11:00 PM 53.6 °F - 39.2 °F 58% 29.80 in 6.2 mi NNW 4.6 mph - N/A Rain Rain
11:30 PM 51.8 °F - 42.8 °F 71% 29.83 in 6.2 mi West 4.6 mph - N/A Rain Rain